Regional Weather Roundup
Issued by NWS Little Rock, AR

Home | Current Version | Previous Version | Text Only | Print | Product List | Glossary Off
Versions: 1 2 3 4 5 6 7 8 9 10 11 12 13 14 15 16 17 18 19 20 21 22 23 24 25 26 27 28 29 30 31 32 33 34 35 36 37 38 39 40 41 42 43 44 45 46 47 48 49 50

000
ASUS44 KLZK 041212
RWRLZK

WEATHER ROUNDUP FOR ARKANSAS
NATIONAL WEATHER SERVICE LITTLE ROCK AR
600 AM CST SUN DEC 04 2016

NOTE: "FAIR" INDICATES FEW OR NO CLOUDS BELOW 12,000 FEET WITH NO
SIGNIFICANT WEATHER AND/OR OBSTRUCTIONS TO VISIBILITY.

ARZ001-003-010-029-041300-
NORTHWEST ARKANSAS

CITY           SKY/WX    TMP DP  RH WIND       PRES   REMARKS
FAYETTEVILLE   CLOUDY    41  41 100 NW6       29.99S FOG
6HR MIN TEMP:  41; 6HR MAX TEMP:  43; 6HR PCP:  0.01;

FORT SMITH     CLOUDY    43  41  93 CALM      30.02R FOG
6HR MIN TEMP:  43; 6HR MAX TEMP:  44;

HARRISON       CLOUDY    38  38 100 SE6       29.99R FOG
6HR MIN TEMP:  37; 6HR MAX TEMP:  38; 6HR PCP: TRACE;

BENTONVILLE    CLOUDY    41  36  81 CALM      30.00S
6HR MIN TEMP:  41; 6HR MAX TEMP:  41; 6HR PCP:  0.02;

ROGERS         LGT RAIN  40  39  97 CALM      30.00S
6HR MIN TEMP:  40; 6HR MAX TEMP:  41; 6HR PCP:  0.01;

SILOAM SPGS    CLOUDY    43  39  87 CALM      30.00F
6HR MIN TEMP:  41; 6HR MAX TEMP:  43; 6HR PCP:  0.04;

HIGHFILL       CLOUDY    41  40  96 CALM      29.99F FOG
6HR MIN TEMP:  41; 6HR MAX TEMP:  42;

SPRINGDALE     FOG       41  41 100 CALM      30.00  VSB 1
$$

ARZ004-005-016-041300-
NORTH CENTRAL ARKANSAS

CITY           SKY/WX    TMP DP  RH WIND       PRES   REMARKS
BATESVILLE     CLOUDY    39  37  93 E9        30.00F
6HR MIN TEMP:  39; 6HR MAX TEMP:  41; 6HR PCP:  0.08;

FLIPPIN        CLOUDY    39  36  87 E5        29.97S
6HR MIN TEMP:  39; 6HR MAX TEMP:  39; 6HR PCP:  0.01;

MTN HOME       CLOUDY    38  38 100 SE6       29.98F FOG
6HR MIN TEMP:  38; 6HR MAX TEMP:  38; 6HR PCP:  0.01;

$$

ARZ040-041-041300-
WEST CENTRAL ARKANSAS

CITY           SKY/WX    TMP DP  RH WIND       PRES   REMARKS
MENA           CLOUDY    45  43  93 NE3       29.98R
MOUNT IDA      CLOUDY    43  42  97 CALM      29.95R FOG
6HR MIN TEMP:  43; 6HR MAX TEMP:  45; 6HR PCP:  0.01;

$$

ARZ009-017-025-026-028-041300-
NORTHEAST ARKANSAS

CITY           SKY/WX    TMP DP  RH WIND       PRES   REMARKS
CORNING        CLOUDY    39  39 100 NE9       30.03F FOG
JONESBORO      CLOUDY    41  39  93 NE12      30.01F
6HR MIN TEMP:  40; 6HR MAX TEMP:  41; 6HR PCP:  0.05;

NEWPORT        CLOUDY    41  40  96 NE9       30.02F
6HR MIN TEMP:  41; 6HR MAX TEMP:  41;

WALNUT RIDGE   CLOUDY    39  36  87 NE9       30.02S
6HR MIN TEMP:  39; 6HR MAX TEMP:  39; 6HR PCP:  0.02;

BLYTHEVILLE    CLOUDY    42  39  89 E12       30.01F
6HR MIN TEMP:  41; 6HR MAX TEMP:  42; 6HR PCP:  0.04;

$$

ARZ022-023-033-042-044-041300-
CENTRAL ARKANSAS

CITY           SKY/WX    TMP DP  RH WIND       PRES   REMARKS
LITTLE ROCK    CLOUDY    42  42 100 NE6       29.98F
6HR MIN TEMP:  42; 6HR MAX TEMP:  42; 6HR PCP:  0.06;

N LITTLE ROCK    N/A     41  40  97 E6        30.00F
6HR MIN TEMP:  41; 6HR MAX TEMP:  42;

JACKSONVILLE   CLOUDY    42  42  99 NE7       29.98S
6HR MIN TEMP:  42; 6HR MAX TEMP:  43; 6HR PCP:  0.04;

SEARCY         CLOUDY    42  41  96 NE10      30.00F
6HR MIN TEMP:  41; 6HR MAX TEMP:  42; 6HR PCP:  0.06;

HOT SPRINGS    CLOUDY    44  43  96 NE6       29.99R FOG
6HR MIN TEMP:  43; 6HR MAX TEMP:  45; 6HR PCP:  0.01;

RUSSELLVILLE   CLOUDY    42  40  92 E5        29.99S
6HR MIN TEMP:  42; 6HR MAX TEMP:  43; 6HR PCP:  0.02;

CLINTON        CLOUDY    41  41 100 CALM      29.99F
$$

ARZ036-041300-
EAST ARKANSAS

CITY           SKY/WX    TMP DP  RH WIND       PRES   REMARKS
WEST MEMPHIS   CLOUDY    43  41  93 E7        29.97F
6HR MIN TEMP:  42; 6HR MAX TEMP:  43; 6HR PCP:  0.09;

$$

ARZ050-053-066-070-073-041300-
SOUTHWEST ARKANSAS

CITY           SKY/WX    TMP DP  RH WIND       PRES   REMARKS
ARKADELPHIA    CLOUDY    45  44  97 N5        29.99R
6HR MIN TEMP:  45; 6HR MAX TEMP:  46; 6HR PCP:  0.02;

CAMDEN         CLOUDY    45  43  93 N3        29.96S FOG
TEXARKANA      CLOUDY    46  46 100 N6        29.96S
6HR MIN TEMP:  46; 6HR MAX TEMP:  47;

EL DORADO      CLOUDY    46  45  96 NE6       29.95S
6HR MIN TEMP:  46; 6HR MAX TEMP:  47; 6HR PCP:  0.05;

DE QUEEN       CLOUDY    46  46 100 NE3       29.97S
6HR MIN TEMP:  46; 6HR MAX TEMP:  47;

$$

ARZ056-057-069-041300-
SOUTHEAST ARKANSAS

CITY           SKY/WX    TMP DP  RH WIND       PRES   REMARKS
PINE BLUFF     CLOUDY    45  44  97 NE7       29.97S
6HR MIN TEMP:  44; 6HR MAX TEMP:  45; 6HR PCP:  0.08;

STUTTGART      CLOUDY    45  39  81 N6        29.99R
6HR MIN TEMP:  45; 6HR MAX TEMP:  45; 6HR PCP:  0.05;

MONTICELLO     CLOUDY    45  44  97 NE9       29.95R
6HR MIN TEMP:  45; 6HR MAX TEMP:  46; 6HR PCP:  0.05;


$$





USA.gov is the U.S. government's official web portal to all federal, state and local government web resources and services.